Location: Borojevi?i
(45.0486°N, 16.2297°E)
Time: 06:28:54
(UTC+00:00)

CZ-4 R/B - Pass Details

Date: 08 August 2020
Orbit: 682 x 752 km, 98.5° (Epoch: 23 September)

Event Time Altitude Azimuth Distance (km) Brightness Sun altitude
Rises 23:16:27 0° 15° (NNE) 3,188 8.4 -29.1°
Reaches altitude 10° 23:18:44 10° 17° (NNE) 2,268 7.3 -29.0°
Enters shadow 23:22:57 60° 44° (NE) 856 4.3 -29.0°
